owner,sensor,date,latitude,longitude,vertical_datum,sea_water_practical_salinity,qcFlag 
SCCF RECON,ioos:station:SCCF:16:1,2011-01-01T00:00:00Z,26.4345,-81.9647,2.858,33.06,1111122 
SCCF RECON,ioos:station:SCCF:16:1,2011-01-01T01:00:00Z,26.4345,-81.9647,2.909,33.11,1111122 
SCCF RECON,ioos:station:SCCF:16:1,2011-01-01T02:00:00Z,26.4345,-81.9647,2.893,33.11,1111122 
SCCF RECON,ioos:station:SCCF:16:1,2011-01-01T03:00:00Z,26.4345,-81.9647,2.882,33.11,1111122 
SCCF RECON,ioos:station:SCCF:16:1,2011-01-01T04:00:00Z,26.4345,-81.9647,2.787,33.09,1111122 
SCCF RECON,ioos:station:SCCF:16:1,2011-01-01T05:00:00Z,26.4345,-81.9647,2.603,33.09,1111122 
SCCF RECON,ioos:station:SCCF:16:1,2011-01-01T06:00:00Z,26.4345,-81.9647,2.386,33.06,1111122 
SCCF RECON,ioos:station:SCCF:16:1,2011-01-01T07:00:00Z,26.4345,-81.9647,2.181,32.97,1111122 
SCCF RECON,ioos:station:SCCF:16:1,2011-01-01T08:00:00Z,26.4345,-81.9647,2.002,32.73,1111122 
SCCF RECON,ioos:station:SCCF:16:1,2011-01-01T09:00:00Z,26.4345,-81.9647,1.857,32.79,1111122 
SCCF RECON,ioos:station:SCCF:16:1,2011-01-01T10:00:00Z,26.4345,-81.9647,1.917,32.73,1111122 
SCCF RECON,ioos:station:SCCF:16:1,2011-01-01T11:00:00Z,26.4345,-81.9647,2.082,32.94,1111122 
SCCF RECON,ioos:station:SCCF:16:1,2011-01-01T12:00:00Z,26.4345,-81.9647,2.297,33.09,1111122 
SCCF RECON,ioos:station:SCCF:16:1,2011-01-01T13:00:00Z,26.4345,-81.9647,2.422,32.61,1111122 
SCCF RECON,ioos:station:SCCF:16:1,2011-01-01T14:00:00Z,26.4345,-81.9647,2.509,32.85,1111122 
SCCF RECON,ioos:station:SCCF:16:1,2011-01-01T15:00:00Z,26.4345,-81.9647,2.652,32.9,1111122 
SCCF RECON,ioos:station:SCCF:16:1,2011-01-01T16:00:00Z,26.4345,-81.9647,2.748,32.97,1111122 
SCCF RECON,ioos:station:SCCF:16:1,2011-01-01T17:00:00Z,26.4345,-81.9647,2.731,32.96,1111122 
SCCF RECON,ioos:station:SCCF:16:1,2011-01-01T18:00:00Z,26.4345,-81.9647,2.638,32.77,1111122 
SCCF RECON,ioos:station:SCCF:16:1,2011-01-01T19:00:00Z,26.4345,-81.9647,2.567,32.9,1111122 
SCCF RECON,ioos:station:SCCF:16:1,2011-01-01T20:00:00Z,26.4345,-81.9647,2.503,33.03,1111122 
SCCF RECON,ioos:station:SCCF:16:1,2011-01-01T21:00:00Z,26.4345,-81.9647,2.54,33.03,1111122 
SCCF RECON,ioos:station:SCCF:16:1,2011-01-01T22:00:00Z,26.4345,-81.9647,2.568,33.06,1111122 
SCCF RECON,ioos:station:SCCF:16:1,2011-01-01T23:00:00Z,26.4345,-81.9647,2.65,33.08,1111122 
SCCF RECON,ioos:station:SCCF:16:1,2011-01-02T00:00:00Z,26.4345,-81.9647,2.781,33.09,1111122 
SCCF RECON,ioos:station:SCCF:16:1,2011-01-02T01:00:00Z,26.4345,-81.9647,2.878,33.1,1111122 
SCCF RECON,ioos:station:SCCF:16:1,2011-01-02T02:00:00Z,26.4345,-81.9647,2.934,33.15,1111122 
SCCF RECON,ioos:station:SCCF:16:1,2011-01-02T03:00:00Z,26.4345,-81.9647,2.881,33.15,1111122 
SCCF RECON,ioos:station:SCCF:16:1,2011-01-02T04:00:00Z,26.4345,-81.9647,2.825,33.17,1111122 
SCCF RECON,ioos:station:SCCF:16:1,2011-01-02T05:00:00Z,26.4345,-81.9647,2.718,33.16,1111122 
SCCF RECON,ioos:station:SCCF:16:1,2011-01-02T06:00:00Z,26.4345,-81.9647,2.471,33.12,1111122 
SCCF RECON,ioos:station:SCCF:16:1,2011-01-02T07:00:00Z,26.4345,-81.9647,2.303,33.09,1111122 
SCCF RECON,ioos:station:SCCF:16:1,2011-01-02T08:00:00Z,26.4345,-81.9647,2.12,33.02,1111122 
SCCF RECON,ioos:station:SCCF:16:1,2011-01-02T09:00:00Z,26.4345,-81.9647,1.875,32.75,1111122 
SCCF RECON,ioos:station:SCCF:16:1,2011-01-02T10:00:00Z,26.4345,-81.9647,1.744,32.64,1111122 
SCCF RECON,ioos:station:SCCF:16:1,2011-01-02T11:00:00Z,26.4345,-81.9647,1.838,32.75,1111122 
SCCF RECON,ioos:station:SCCF:16:1,2011-01-02T12:00:00Z,26.4345,-81.9647,2.043,32.92,1111122 
SCCF RECON,ioos:station:SCCF:16:1,2011-01-02T13:00:00Z,26.4345,-81.9647,2.234,33.01,1111122 
SCCF RECON,ioos:station:SCCF:16:1,2011-01-02T14:00:00Z,26.4345,-81.9647,2.378,32.77,1111122 
SCCF RECON,ioos:station:SCCF:16:1,2011-01-02T15:00:00Z,26.4345,-81.9647,2.523,32.92,1111122 
SCCF RECON,ioos:station:SCCF:16:1,2011-01-02T16:00:00Z,26.4345,-81.9647,2.665,33.0,1111122 
SCCF RECON,ioos:station:SCCF:16:1,2011-01-02T17:00:00Z,26.4345,-81.9647,2.699,33.06,1111122 
SCCF RECON,ioos:station:SCCF:16:1,2011-01-02T18:00:00Z,26.4345,-81.9647,2.607,33.06,1111122 
SCCF RECON,ioos:station:SCCF:16:1,2011-01-02T19:00:00Z,26.4345,-81.9647,2.539,33.06,1111122 
SCCF RECON,ioos:station:SCCF:16:1,2011-01-02T20:00:00Z,26.4345,-81.9647,2.547,33.05,1111122 
SCCF RECON,ioos:station:SCCF:16:1,2011-01-02T21:00:00Z,26.4345,-81.9647,2.486,33.01,1111122 
SCCF RECON,ioos:station:SCCF:16:1,2011-01-02T22:00:00Z,26.4345,-81.9647,2.494,32.98,1111122 
SCCF RECON,ioos:station:SCCF:16:1,2011-01-02T23:00:00Z,26.4345,-81.9647,2.505,32.98,1111122 
SCCF RECON,ioos:station:SCCF:16:1,2011-01-03T00:00:00Z,26.4345,-81.9647,2.632,33.08,1111122 
SCCF RECON,ioos:station:SCCF:16:1,2011-01-03T01:00:00Z,26.4345,-81.9647,2.787,33.1,1111122 
SCCF RECON,ioos:station:SCCF:16:1,2011-01-03T02:00:00Z,26.4345,-81.9647,2.833,33.11,1111122 
SCCF RECON,ioos:station:SCCF:16:1,2011-01-03T03:00:00Z,26.4345,-81.9647,2.841,33.04,1111122 
SCCF RECON,ioos:station:SCCF:16:1,2011-01-03T04:00:00Z,26.4345,-81.9647,2.813,33.02,1111122 
SCCF RECON,ioos:station:SCCF:16:1,2011-01-03T05:00:00Z,26.4345,-81.9647,2.786,33.02,1111122 
SCCF RECON,ioos:station:SCCF:16:1,2011-01-03T06:00:00Z,26.4345,-81.9647,2.646,32.99,1111122 
SCCF RECON,ioos:station:SCCF:16:1,2011-01-03T07:00:00Z,26.4345,-81.9647,2.385,33.01,1111122 
SCCF RECON,ioos:station:SCCF:16:1,2011-01-03T08:00:00Z,26.4345,-81.9647,2.158,32.98,1111122 
SCCF RECON,ioos:station:SCCF:16:1,2011-01-03T09:00:00Z,26.4345,-81.9647,1.93,32.83,1111122 
SCCF RECON,ioos:station:SCCF:16:1,2011-01-03T10:00:00Z,26.4345,-81.9647,1.76,32.76,1111122 
SCCF RECON,ioos:station:SCCF:16:1,2011-01-03T11:00:00Z,26.4345,-81.9647,1.688,32.68,1111122 
SCCF RECON,ioos:station:SCCF:16:1,2011-01-03T12:00:00Z,26.4345,-81.9647,1.83,32.93,1111122 
SCCF RECON,ioos:station:SCCF:16:1,2011-01-03T13:00:00Z,26.4345,-81.9647,2.08,33.12,1111122 
SCCF RECON,ioos:station:SCCF:16:1,2011-01-03T14:00:00Z,26.4345,-81.9647,2.259,33.2,1111122 
SCCF RECON,ioos:station:SCCF:16:1,2011-01-03T15:00:00Z,26.4345,-81.9647,2.403,33.07,1111122 
SCCF RECON,ioos:station:SCCF:16:1,2011-01-03T16:00:00Z,26.4345,-81.9647,2.536,33.05,1111122 
SCCF RECON,ioos:station:SCCF:16:1,2011-01-03T17:00:00Z,26.4345,-81.9647,2.623,33.08,1111122 
SCCF RECON,ioos:station:SCCF:16:1,2011-01-03T18:00:00Z,26.4345,-81.9647,2.622,33.1,1111122 
SCCF RECON,ioos:station:SCCF:16:1,2011-01-03T19:00:00Z,26.4345,-81.9647,2.553,33.11,1111122 
SCCF RECON,ioos:station:SCCF:16:1,2011-01-03T20:00:00Z,26.4345,-81.9647,2.471,33.11,1111122 
SCCF RECON,ioos:station:SCCF:16:1,2011-01-03T21:00:00Z,26.4345,-81.9647,2.442,33.1,1111122 
SCCF RECON,ioos:station:SCCF:16:1,2011-01-03T22:00:00Z,26.4345,-81.9647,2.449,33.12,1111122 
SCCF RECON,ioos:station:SCCF:16:1,2011-01-03T23:00:00Z,26.4345,-81.9647,2.462,33.13,1111122 
SCCF RECON,ioos:station:SCCF:16:1,2011-01-04T00:00:00Z,26.4345,-81.9647,2.543,33.12,1111122 
SCCF RECON,ioos:station:SCCF:16:1,2011-01-04T01:00:00Z,26.4345,-81.9647,2.66,33.13,1111122 
SCCF RECON,ioos:station:SCCF:16:1,2011-01-04T02:00:00Z,26.4345,-81.9647,2.796,33.17,1111122 
SCCF RECON,ioos:station:SCCF:16:1,2011-01-04T03:00:00Z,26.4345,-81.9647,2.881,33.2,1111122 
SCCF RECON,ioos:station:SCCF:16:1,2011-01-04T04:00:00Z,26.4345,-81.9647,2.907,33.21,1111122 
SCCF RECON,ioos:station:SCCF:16:1,2011-01-04T05:00:00Z,26.4345,-81.9647,2.873,33.25,1111122 
SCCF RECON,ioos:station:SCCF:16:1,2011-01-04T06:00:00Z,26.4345,-81.9647,2.759,33.21,1111122 
SCCF RECON,ioos:station:SCCF:16:1,2011-01-04T07:00:00Z,26.4345,-81.9647,2.573,33.18,1111122 
SCCF RECON,ioos:station:SCCF:16:1,2011-01-04T08:00:00Z,26.4345,-81.9647,2.335,33.04,1111122 
SCCF RECON,ioos:station:SCCF:16:1,2011-01-04T09:00:00Z,26.4345,-81.9647,2.14,33.01,1111122 
SCCF RECON,ioos:station:SCCF:16:1,2011-01-04T10:00:00Z,26.4345,-81.9647,1.938,32.85,1111122 
SCCF RECON,ioos:station:SCCF:16:1,2011-01-04T11:00:00Z,26.4345,-81.9647,1.765,32.91,1111122 
SCCF RECON,ioos:station:SCCF:16:1,2011-01-04T12:00:00Z,26.4345,-81.9647,1.782,32.83,1111122 
SCCF RECON,ioos:station:SCCF:16:1,2011-01-04T13:00:00Z,26.4345,-81.9647,1.98,33.04,1111122 
SCCF RECON,ioos:station:SCCF:16:1,2011-01-04T14:00:00Z,26.4345,-81.9647,2.239,32.94,1111122 
SCCF RECON,ioos:station:SCCF:16:1,2011-01-04T15:00:00Z,26.4345,-81.9647,2.441,33.11,1111122 
SCCF RECON,ioos:station:SCCF:16:1,2011-01-04T16:00:00Z,26.4345,-81.9647,2.542,33.09,1111122 
SCCF RECON,ioos:station:SCCF:16:1,2011-01-04T17:00:00Z,26.4345,-81.9647,2.594,33.19,1111122 
SCCF RECON,ioos:station:SCCF:16:1,2011-01-04T18:00:00Z,26.4345,-81.9647,2.622,33.26,1111122 
SCCF RECON,ioos:station:SCCF:16:1,2011-01-04T19:00:00Z,26.4345,-81.9647,2.591,33.25,1111122 
SCCF RECON,ioos:station:SCCF:16:1,2011-01-04T20:00:00Z,26.4345,-81.9647,2.515,33.25,1111122 
SCCF RECON,ioos:station:SCCF:16:1,2011-01-04T21:00:00Z,26.4345,-81.9647,2.442,33.25,1111122 
SCCF RECON,ioos:station:SCCF:16:1,2011-01-04T22:00:00Z,26.4345,-81.9647,2.407,33.24,1111122 
SCCF RECON,ioos:station:SCCF:16:1,2011-01-04T23:00:00Z,26.4345,-81.9647,2.388,33.17,1111122 
SCCF RECON,ioos:station:SCCF:16:1,2011-01-05T00:00:00Z,26.4345,-81.9647,2.402,33.19,1111122 
SCCF RECON,ioos:station:SCCF:16:1,2011-01-05T01:00:00Z,26.4345,-81.9647,2.494,33.19,1111122 
SCCF RECON,ioos:station:SCCF:16:1,2011-01-05T02:00:00Z,26.4345,-81.9647,2.661,33.2,1111122 
SCCF RECON,ioos:station:SCCF:16:1,2011-01-05T03:00:00Z,26.4345,-81.9647,2.8,33.21,1111122 
SCCF RECON,ioos:station:SCCF:16:1,2011-01-05T04:00:00Z,26.4345,-81.9647,2.892,33.2,1111122 
SCCF RECON,ioos:station:SCCF:16:1,2011-01-05T05:00:00Z,26.4345,-81.9647,2.887,33.19,1111122 
SCCF RECON,ioos:station:SCCF:16:1,2011-01-05T06:00:00Z,26.4345,-81.9647,2.804,33.21,1111122 
SCCF RECON,ioos:station:SCCF:16:1,2011-01-05T07:00:00Z,26.4345,-81.9647,2.643,33.21,1111122 
SCCF RECON,ioos:station:SCCF:16:1,2011-01-05T08:00:00Z,26.4345,-81.9647,2.455,33.17,1111122 
SCCF RECON,ioos:station:SCCF:16:1,2011-01-05T09:00:00Z,26.4345,-81.9647,2.255,33.03,1111122 
SCCF RECON,ioos:station:SCCF:16:1,2011-01-05T10:00:00Z,26.4345,-81.9647,2.056,33.01,1111122 
SCCF RECON,ioos:station:SCCF:16:1,2011-01-05T11:00:00Z,26.4345,-81.9647,1.867,32.8,1111122 
SCCF RECON,ioos:station:SCCF:16:1,2011-01-05T12:00:00Z,26.4345,-81.9647,1.765,32.84,1111122 
SCCF RECON,ioos:station:SCCF:16:1,2011-01-05T13:00:00Z,26.4345,-81.9647,1.843,32.87,1111122 
SCCF RECON,ioos:station:SCCF:16:1,2011-01-05T14:00:00Z,26.4345,-81.9647,2.079,32.87,1111122 
SCCF RECON,ioos:station:SCCF:16:1,2011-01-05T15:00:00Z,26.4345,-81.9647,2.319,32.91,1111122 
SCCF RECON,ioos:station:SCCF:16:1,2011-01-05T16:00:00Z,26.4345,-81.9647,2.51,33.1,1111122 
SCCF RECON,ioos:station:SCCF:16:1,2011-01-05T17:00:00Z,26.4345,-81.9647,2.581,33.18,1111122 
SCCF RECON,ioos:station:SCCF:16:1,2011-01-05T18:00:00Z,26.4345,-81.9647,2.636,33.27,1111122 
SCCF RECON,ioos:station:SCCF:16:1,2011-01-05T19:00:00Z,26.4345,-81.9647,2.62,33.29,1111122 
SCCF RECON,ioos:station:SCCF:16:1,2011-01-05T20:00:00Z,26.4345,-81.9647,2.566,33.3,1111122 
SCCF RECON,ioos:station:SCCF:16:1,2011-01-05T21:00:00Z,26.4345,-81.9647,2.5,33.3,1111122 
SCCF RECON,ioos:station:SCCF:16:1,2011-01-05T22:00:00Z,26.4345,-81.9647,2.443,33.3,1111122 
SCCF RECON,ioos:station:SCCF:16:1,2011-01-05T23:00:00Z,26.4345,-81.9647,2.397,33.29,1111122 
SCCF RECON,ioos:station:SCCF:16:1,2011-01-06T00:00:00Z,26.4345,-81.9647,2.387,33.28,1111122 
SCCF RECON,ioos:station:SCCF:16:1,2011-01-06T01:00:00Z,26.4345,-81.9647,2.462,33.26,1111122 
SCCF RECON,ioos:station:SCCF:16:1,2011-01-06T02:00:00Z,26.4345,-81.9647,2.62,33.29,1111122 
SCCF RECON,ioos:station:SCCF:16:1,2011-01-06T03:00:00Z,26.4345,-81.9647,2.761,33.19,1111122 
SCCF RECON,ioos:station:SCCF:16:1,2011-01-06T04:00:00Z,26.4345,-81.9647,2.891,33.15,1111122 
SCCF RECON,ioos:station:SCCF:16:1,2011-01-06T05:00:00Z,26.4345,-81.9647,2.937,33.15,1111122 
SCCF RECON,ioos:station:SCCF:16:1,2011-01-06T06:00:00Z,26.4345,-81.9647,2.893,33.15,1111122 
SCCF RECON,ioos:station:SCCF:16:1,2011-01-06T07:00:00Z,26.4345,-81.9647,2.848,33.15,1111122 
SCCF RECON,ioos:station:SCCF:16:1,2011-01-06T08:00:00Z,26.4345,-81.9647,2.734,33.15,1111122 
SCCF RECON,ioos:station:SCCF:16:1,2011-01-06T09:00:00Z,26.4345,-81.9647,2.479,33.14,1111122 
SCCF RECON,ioos:station:SCCF:16:1,2011-01-06T10:00:00Z,26.4345,-81.9647,2.235,33.16,1111122 
SCCF RECON,ioos:station:SCCF:16:1,2011-01-06T11:00:00Z,26.4345,-81.9647,2.078,33.26,1111122 
SCCF RECON,ioos:station:SCCF:16:1,2011-01-06T12:00:00Z,26.4345,-81.9647,1.956,33.17,1111122 
SCCF RECON,ioos:station:SCCF:16:1,2011-01-06T13:00:00Z,26.4345,-81.9647,1.911,33.28,1111122 
SCCF RECON,ioos:station:SCCF:16:1,2011-01-06T14:00:00Z,26.4345,-81.9647,2.048,33.22,1111122 
SCCF RECON,ioos:station:SCCF:16:1,2011-01-06T15:00:00Z,26.4345,-81.9647,2.289,33.29,1111122 
SCCF RECON,ioos:station:SCCF:16:1,2011-01-06T16:00:00Z,26.4345,-81.9647,2.504,33.15,1111122 
SCCF RECON,ioos:station:SCCF:16:1,2011-01-06T17:00:00Z,26.4345,-81.9647,2.574,32.97,1111122 
SCCF RECON,ioos:station:SCCF:16:1,2011-01-06T18:00:00Z,26.4345,-81.9647,2.6,32.96,1111122 
SCCF RECON,ioos:station:SCCF:16:1,2011-01-06T19:00:00Z,26.4345,-81.9647,2.679,32.96,1111122 
SCCF RECON,ioos:station:SCCF:16:1,2011-01-06T20:00:00Z,26.4345,-81.9647,2.652,32.93,1111122 
SCCF RECON,ioos:station:SCCF:16:1,2011-01-06T21:00:00Z,26.4345,-81.9647,2.481,32.94,1111122 
SCCF RECON,ioos:station:SCCF:16:1,2011-01-06T22:00:00Z,26.4345,-81.9647,2.34,32.96,1111122 
SCCF RECON,ioos:station:SCCF:16:1,2011-01-06T23:00:00Z,26.4345,-81.9647,2.296,32.95,1111122 
SCCF RECON,ioos:station:SCCF:16:1,2011-01-07T00:00:00Z,26.4345,-81.9647,2.28,32.93,1111122 
SCCF RECON,ioos:station:SCCF:16:1,2011-01-07T01:00:00Z,26.4345,-81.9647,2.28,32.92,1111122 
SCCF RECON,ioos:station:SCCF:16:1,2011-01-07T02:00:00Z,26.4345,-81.9647,2.324,32.93,1111122 
SCCF RECON,ioos:station:SCCF:16:1,2011-01-07T03:00:00Z,26.4345,-81.9647,2.454,32.91,1111122 
SCCF RECON,ioos:station:SCCF:16:1,2011-01-07T04:00:00Z,26.4345,-81.9647,2.609,32.88,1111122 
SCCF RECON,ioos:station:SCCF:16:1,2011-01-07T05:00:00Z,26.4345,-81.9647,2.753,32.72,1111122 
SCCF RECON,ioos:station:SCCF:16:1,2011-01-07T06:00:00Z,26.4345,-81.9647,2.741,32.76,1111122 
SCCF RECON,ioos:station:SCCF:16:1,2011-01-07T07:00:00Z,26.4345,-81.9647,2.687,32.86,1111122 
SCCF RECON,ioos:station:SCCF:16:1,2011-01-07T08:00:00Z,26.4345,-81.9647,2.567,32.8,1111122 
SCCF RECON,ioos:station:SCCF:16:1,2011-01-07T09:00:00Z,26.4345,-81.9647,2.371,32.75,1111122 
SCCF RECON,ioos:station:SCCF:16:1,2011-01-07T10:00:00Z,26.4345,-81.9647,2.158,32.9,1111122 
SCCF RECON,ioos:station:SCCF:16:1,2011-01-07T11:00:00Z,26.4345,-81.9647,1.981,32.71,1111122 
SCCF RECON,ioos:station:SCCF:16:1,2011-01-07T12:00:00Z,26.4345,-81.9647,1.922,32.57,1111122 
SCCF RECON,ioos:station:SCCF:16:1,2011-01-07T13:00:00Z,26.4345,-81.9647,1.84,32.33,1111122 
SCCF RECON,ioos:station:SCCF:16:1,2011-01-07T14:00:00Z,26.4345,-81.9647,1.884,32.2,1111122 
SCCF RECON,ioos:station:SCCF:16:1,2011-01-07T15:00:00Z,26.4345,-81.9647,2.09,32.38,1111122 
SCCF RECON,ioos:station:SCCF:16:1,2011-01-07T16:00:00Z,26.4345,-81.9647,2.302,32.57,1111122 
SCCF RECON,ioos:station:SCCF:16:1,2011-01-07T17:00:00Z,26.4345,-81.9647,2.434,32.76,1111122 
SCCF RECON,ioos:station:SCCF:16:1,2011-01-07T18:00:00Z,26.4345,-81.9647,2.482,32.85,1111122 
SCCF RECON,ioos:station:SCCF:16:1,2011-01-07T19:00:00Z,26.4345,-81.9647,2.585,32.95,1111122 
SCCF RECON,ioos:station:SCCF:16:1,2011-01-07T20:00:00Z,26.4345,-81.9647,2.604,33.01,1111122 
SCCF RECON,ioos:station:SCCF:16:1,2011-01-07T21:00:00Z,26.4345,-81.9647,2.563,33.02,1111122 
SCCF RECON,ioos:station:SCCF:16:1,2011-01-07T22:00:00Z,26.4345,-81.9647,2.465,33.02,1111122 
SCCF RECON,ioos:station:SCCF:16:1,2011-01-07T23:00:00Z,26.4345,-81.9647,2.412,32.99,1111122 
SCCF RECON,ioos:station:SCCF:16:1,2011-01-08T00:00:00Z,26.4345,-81.9647,2.376,32.94,1111122 
SCCF RECON,ioos:station:SCCF:16:1,2011-01-08T01:00:00Z,26.4345,-81.9647,2.362,32.92,1111122 
SCCF RECON,ioos:station:SCCF:16:1,2011-01-08T02:00:00Z,26.4345,-81.9647,2.368,32.89,1111122 
SCCF RECON,ioos:station:SCCF:16:1,2011-01-08T03:00:00Z,26.4345,-81.9647,2.481,32.88,1111122 
SCCF RECON,ioos:station:SCCF:16:1,2011-01-08T04:00:00Z,26.4345,-81.9647,2.648,32.94,1111122 
SCCF RECON,ioos:station:SCCF:16:1,2011-01-08T05:00:00Z,26.4345,-81.9647,2.734,33.05,1111122 
SCCF RECON,ioos:station:SCCF:16:1,2011-01-08T06:00:00Z,26.4345,-81.9647,2.711,33.09,1111122 
SCCF RECON,ioos:station:SCCF:16:1,2011-01-08T07:00:00Z,26.4345,-81.9647,2.767,33.12,1111122 
SCCF RECON,ioos:station:SCCF:16:1,2011-01-08T08:00:00Z,26.4345,-81.9647,2.777,33.08,1111122 
SCCF RECON,ioos:station:SCCF:16:1,2011-01-08T09:00:00Z,26.4345,-81.9647,2.626,33.06,1111122 
SCCF RECON,ioos:station:SCCF:16:1,2011-01-08T10:00:00Z,26.4345,-81.9647,2.456,33.07,1111122 
SCCF RECON,ioos:station:SCCF:16:1,2011-01-08T11:00:00Z,26.4345,-81.9647,2.312,33.01,1111122 
SCCF RECON,ioos:station:SCCF:16:1,2011-01-08T12:00:00Z,26.4345,-81.9647,2.168,32.79,1111122 
SCCF RECON,ioos:station:SCCF:16:1,2011-01-08T13:00:00Z,26.4345,-81.9647,2.064,32.68,1111122 
SCCF RECON,ioos:station:SCCF:16:1,2011-01-08T14:00:00Z,26.4345,-81.9647,2.019,32.77,1111122 
SCCF RECON,ioos:station:SCCF:16:1,2011-01-08T15:00:00Z,26.4345,-81.9647,2.119,32.77,1111122 
SCCF RECON,ioos:station:SCCF:16:1,2011-01-08T16:00:00Z,26.4345,-81.9647,2.307,32.81,1111122 
SCCF RECON,ioos:station:SCCF:16:1,2011-01-08T17:00:00Z,26.4345,-81.9647,2.45,32.87,1111122 
SCCF RECON,ioos:station:SCCF:16:1,2011-01-08T18:00:00Z,26.4345,-81.9647,2.549,33.04,1111122 
SCCF RECON,ioos:station:SCCF:16:1,2011-01-08T19:00:00Z,26.4345,-81.9647,2.597,33.11,1111122 
SCCF RECON,ioos:station:SCCF:16:1,2011-01-08T20:00:00Z,26.4345,-81.9647,2.608,33.14,1111122 
SCCF RECON,ioos:station:SCCF:16:1,2011-01-08T21:00:00Z,26.4345,-81.9647,2.565,33.15,1111122 
SCCF RECON,ioos:station:SCCF:16:1,2011-01-08T22:00:00Z,26.4345,-81.9647,2.465,33.16,1111122 
SCCF RECON,ioos:station:SCCF:16:1,2011-01-08T23:00:00Z,26.4345,-81.9647,2.353,33.16,1111122 
SCCF RECON,ioos:station:SCCF:16:1,2011-01-09T00:00:00Z,26.4345,-81.9647,2.3,33.02,1111122 
SCCF RECON,ioos:station:SCCF:16:1,2011-01-09T01:00:00Z,26.4345,-81.9647,2.249,32.91,1111122 
SCCF RECON,ioos:station:SCCF:16:1,2011-01-09T02:00:00Z,26.4345,-81.9647,2.216,32.79,1111122 
SCCF RECON,ioos:station:SCCF:16:1,2011-01-09T03:00:00Z,26.4345,-81.9647,2.278,32.74,1111122 
SCCF RECON,ioos:station:SCCF:16:1,2011-01-09T04:00:00Z,26.4345,-81.9647,2.406,32.79,1111122 
SCCF RECON,ioos:station:SCCF:16:1,2011-01-09T05:00:00Z,26.4345,-81.9647,2.521,33.03,1111122 
SCCF RECON,ioos:station:SCCF:16:1,2011-01-09T06:00:00Z,26.4345,-81.9647,2.605,33.03,1111122 
SCCF RECON,ioos:station:SCCF:16:1,2011-01-09T07:00:00Z,26.4345,-81.9647,2.63,33.02,1111122 
SCCF RECON,ioos:station:SCCF:16:1,2011-01-09T08:00:00Z,26.4345,-81.9647,2.651,32.99,1111122 
SCCF RECON,ioos:station:SCCF:16:1,2011-01-09T09:00:00Z,26.4345,-81.9647,2.627,33.05,1111122 
SCCF RECON,ioos:station:SCCF:16:1,2011-01-09T10:00:00Z,26.4345,-81.9647,2.49,32.88,1111122 
SCCF RECON,ioos:station:SCCF:16:1,2011-01-09T11:00:00Z,26.4345,-81.9647,2.304,32.89,1111122 
SCCF RECON,ioos:station:SCCF:16:1,2011-01-09T12:00:00Z,26.4345,-81.9647,2.154,32.72,1111122 
SCCF RECON,ioos:station:SCCF:16:1,2011-01-09T13:00:00Z,26.4345,-81.9647,2.087,32.68,1111122 
SCCF RECON,ioos:station:SCCF:16:1,2011-01-09T14:00:00Z,26.4345,-81.9647,2.027,32.49,1111122 
SCCF RECON,ioos:station:SCCF:16:1,2011-01-09T15:00:00Z,26.4345,-81.9647,2.031,32.54,1111122 
SCCF RECON,ioos:station:SCCF:16:1,2011-01-09T16:00:00Z,26.4345,-81.9647,2.196,32.68,1111122 
SCCF RECON,ioos:station:SCCF:16:1,2011-01-09T17:00:00Z,26.4345,-81.9647,2.407,32.63,1111122 
SCCF RECON,ioos:station:SCCF:16:1,2011-01-09T18:00:00Z,26.4345,-81.9647,2.554,32.64,1111122 
SCCF RECON,ioos:station:SCCF:16:1,2011-01-09T19:00:00Z,26.4345,-81.9647,2.601,32.66,1111122 
SCCF RECON,ioos:station:SCCF:16:1,2011-01-09T20:00:00Z,26.4345,-81.9647,2.647,32.78,1111122 
SCCF RECON,ioos:station:SCCF:16:1,2011-01-09T21:00:00Z,26.4345,-81.9647,2.649,32.81,1111122 
SCCF RECON,ioos:station:SCCF:16:1,2011-01-09T22:00:00Z,26.4345,-81.9647,2.581,32.76,1111122 
SCCF RECON,ioos:station:SCCF:16:1,2011-01-09T23:00:00Z,26.4345,-81.9647,2.497,32.75,1111122 
SCCF RECON,ioos:station:SCCF:16:1,2011-01-10T00:00:00Z,26.4345,-81.9647,2.414,32.76,1111122 
SCCF RECON,ioos:station:SCCF:16:1,2011-01-10T01:00:00Z,26.4345,-81.9647,2.354,32.64,1111122 
SCCF RECON,ioos:station:SCCF:16:1,2011-01-10T02:00:00Z,26.4345,-81.9647,2.325,32.53,1111122 
SCCF RECON,ioos:station:SCCF:16:1,2011-01-10T03:00:00Z,26.4345,-81.9647,2.285,32.48,1111122 
SCCF RECON,ioos:station:SCCF:16:1,2011-01-10T04:00:00Z,26.4345,-81.9647,2.308,32.4,1111122 
SCCF RECON,ioos:station:SCCF:16:1,2011-01-10T05:00:00Z,26.4345,-81.9647,2.409,32.37,1111122 
SCCF RECON,ioos:station:SCCF:16:1,2011-01-10T06:00:00Z,26.4345,-81.9647,2.544,32.5,1111122 
SCCF RECON,ioos:station:SCCF:16:1,2011-01-10T07:00:00Z,26.4345,-81.9647,2.588,32.64,1111122 
SCCF RECON,ioos:station:SCCF:16:1,2011-01-10T08:00:00Z,26.4345,-81.9647,2.602,32.79,1111122 
SCCF RECON,ioos:station:SCCF:16:1,2011-01-10T09:00:00Z,26.4345,-81.9647,2.619,32.8,1111122 
SCCF RECON,ioos:station:SCCF:16:1,2011-01-10T10:00:00Z,26.4345,-81.9647,2.609,32.83,1111122 
SCCF RECON,ioos:station:SCCF:16:1,2011-01-10T11:00:00Z,26.4345,-81.9647,2.521,32.84,1111122 
SCCF RECON,ioos:station:SCCF:16:1,2011-01-10T12:00:00Z,26.4345,-81.9647,2.398,32.85,1111122 
SCCF RECON,ioos:station:SCCF:16:1,2011-01-10T13:00:00Z,26.4345,-81.9647,2.375,32.81,1111122 
SCCF RECON,ioos:station:SCCF:16:1,2011-01-10T14:00:00Z,26.4345,-81.9647,2.328,32.78,1111122 
SCCF RECON,ioos:station:SCCF:16:1,2011-01-10T15:00:00Z,26.4345,-81.9647,2.25,32.75,1111122 
SCCF RECON,ioos:station:SCCF:16:1,2011-01-10T16:00:00Z,26.4345,-81.9647,2.28,32.58,1111122 
SCCF RECON,ioos:station:SCCF:16:1,2011-01-10T17:00:00Z,26.4345,-81.9647,2.41,32.57,1111122 
SCCF RECON,ioos:station:SCCF:16:1,2011-01-10T18:00:00Z,26.4345,-81.9647,2.592,32.71,1111122 
SCCF RECON,ioos:station:SCCF:16:1,2011-01-10T19:00:00Z,26.4345,-81.9647,2.631,32.78,1111122 
SCCF RECON,ioos:station:SCCF:16:1,2011-01-10T20:00:00Z,26.4345,-81.9647,2.678,32.81,1111122 
SCCF RECON,ioos:station:SCCF:16:1,2011-01-10T21:00:00Z,26.4345,-81.9647,2.725,32.89,1111122 
SCCF RECON,ioos:station:SCCF:16:1,2011-01-10T22:00:00Z,26.4345,-81.9647,2.681,32.93,1111122 
SCCF RECON,ioos:station:SCCF:16:1,2011-01-10T23:00:00Z,26.4345,-81.9647,2.61,32.93,1111122 
SCCF RECON,ioos:station:SCCF:16:1,2011-01-11T00:00:00Z,26.4345,-81.9647,2.483,32.92,1111122 
SCCF RECON,ioos:station:SCCF:16:1,2011-01-11T01:00:00Z,26.4345,-81.9647,2.422,32.88,1111122 
SCCF RECON,ioos:station:SCCF:16:1,2011-01-11T02:00:00Z,26.4345,-81.9647,2.353,32.84,1111122 
SCCF RECON,ioos:station:SCCF:16:1,2011-01-11T03:00:00Z,26.4345,-81.9647,2.305,32.8,1111122 
SCCF RECON,ioos:station:SCCF:16:1,2011-01-11T04:00:00Z,26.4345,-81.9647,2.264,32.77,1111122 
SCCF RECON,ioos:station:SCCF:16:1,2011-01-11T05:00:00Z,26.4345,-81.9647,2.3,32.75,1111122 
SCCF RECON,ioos:station:SCCF:16:1,2011-01-11T06:00:00Z,26.4345,-81.9647,2.362,32.74,1111122 
SCCF RECON,ioos:station:SCCF:16:1,2011-01-11T07:00:00Z,26.4345,-81.9647,2.44,32.74,1111122 
SCCF RECON,ioos:station:SCCF:16:1,2011-01-11T08:00:00Z,26.4345,-81.9647,2.533,32.75,1111122 
SCCF RECON,ioos:station:SCCF:16:1,2011-01-11T09:00:00Z,26.4345,-81.9647,2.556,32.77,1111122 
SCCF RECON,ioos:station:SCCF:16:1,2011-01-11T10:00:00Z,26.4345,-81.9647,2.556,32.78,1111122 
SCCF RECON,ioos:station:SCCF:16:1,2011-01-11T11:00:00Z,26.4345,-81.9647,2.535,32.78,1111122 
SCCF RECON,ioos:station:SCCF:16:1,2011-01-11T12:00:00Z,26.4345,-81.9647,2.482,32.78,1111122 
SCCF RECON,ioos:station:SCCF:16:1,2011-01-11T13:00:00Z,26.4345,-81.9647,2.413,32.77,1111122 
SCCF RECON,ioos:station:SCCF:16:1,2011-01-11T14:00:00Z,26.4345,-81.9647,2.364,32.76,1111122 
SCCF RECON,ioos:station:SCCF:16:1,2011-01-11T15:00:00Z,26.4345,-81.9647,2.354,32.75,1111122 
SCCF RECON,ioos:station:SCCF:16:1,2011-01-11T17:00:00Z,26.4345,-81.9647,2.427,32.73,1111122 